Welcome to the New NWS' Forecast!
Most changes are behind the scenes, but click here for differences you might notice.

Regional Weather Roundup (RWR)

Issued by Gray - Portland, ME (GYX)

                            
000
ASUS41 KGYX 230310
RWRGYX
WEATHER ROUNDUP FOR MAINE AND NEW HAMPSHIRE
NATIONAL WEATHER SERVICE GRAY ME
1100 PM EDT MON OCT 22 2018

MEZ002-005-006-010-012-015-018-020-021-024-026-027-029-230400-
MAINE
  
CITY           SKY/WX    TMP DP  RH WIND       PRES   REMARKS
PORTLAND       CLOUDY    34  29  82 CALM      30.18R                  
SANFORD        CLOUDY    36  33  89 CALM      30.18R                  
BAR HARBOR     FAIR      28  23  81 CALM      30.19R                  
WISCASSET      FAIR      27  25  92 CALM      30.19S                  
ROCKLAND       FAIR      28  25  88 CALM      30.18R                  
FRYEBURG       CLOUDY    32  28  85 CALM      30.16S                  
LEWISTONAUBURN MOCLDY    29  25  85 CALM      30.18R                  
AUGUSTA        FAIR      32  24  72 CALM      30.17S                  
WATERVILLE     CLOUDY    30  24  78 CALM      30.15R                  
BANGOR         CLOUDY    26  21  81 CALM      30.19R                  
GREENVILLE       N/A     29  18  63 CALM      30.10R                  
MILLINOCKET    FAIR      26  19  74 CALM      30.17R                  
HOULTON        FAIR      28  17  63 SW3       30.12S                  
PRESQUE ISLE   CLOUDY    29  19  66 W6        30.13R                  
FRENCHVILLE    CLOUDY    31  18  58 NW6       30.07S                  
CARIBOU        FAIR      29  17  61 CALM      30.10R                  
$$

NHZ002-005-008-009-011-012-014-230400-
NEW HAMPSHIRE
  
CITY           SKY/WX    TMP DP  RH WIND       PRES   REMARKS
PORTSMOUTH     CLOUDY    43  31  62 CALM      30.16S                  
ROCHESTER      CLOUDY    41  33  73 CALM      30.17S                  
NASHUA         CLOUDY    44  34  67 VRB3      30.18S                  
MANCHESTER     MOCLDY    45  32  60 S6        30.16S                  
CONCORD        CLOUDY    41  33  73 CALM      30.16S                  
LACONIA        CLOUDY    40  31  70 W3        30.16R                  
PLYMOUTH       CLOUDY    36  32  86 CALM      30.15S                  
BERLIN         CLOUDY    32  26  78 CALM      30.13R                  
WHITEFIELD     CLOUDY    32  27  81 CALM      30.13R                  
JAFFREY        CLOUDY    41  34  76 S5        30.15F                  
KEENE          CLOUDY    41  34  76 CALM      30.16S                  
LEBANON        CLOUDY    40  33  76 CALM      30.14R                  
MT WASHINGTON  SNOW      18  18 100 W31         N/A  VSB 0   WCI  -2  
$$

VTZ005-007-008-230400-
VERMONT
  
CITY           SKY/WX    TMP DP  RH WIND       PRES   REMARKS
ST JOHNSBURY     N/A     35  28  75 MISG      30.12S                  
MONTPELIER     CLOUDY    38  32  79 SE6       30.14S                  
BURLINGTON     CLOUDY    43  34  70 S7        30.12R                  
$$

MAZ007-012-024-CTZ003-RIZ002-NYZ038-NYZ072-230400-
SOUTHERN NEW ENGLAND AND NY
  
CITY           SKY/WX    TMP DP  RH WIND       PRES   REMARKS
BOSTON         CLOUDY    45  32  60 SW3       30.20S                  
WORCESTER      FAIR      37  30  75 W10       30.15S                  
NANTUCKET      CLOUDY    47  31  53 NW5       30.22R                  
PROVIDENCE     CLOUDY    41  34  76 CALM      30.21S                  
HARTFORD       FAIR      36  33  89 CALM      30.18S                  
ALBANY         CLOUDY    44  34  67 S7        30.15S                  
NEW YORK CITY  CLOUDY    49  35  58 SW7       30.17F                  
$$

ANZ081-ANZ082-ANZ150-NHZ014-MEZ023>029-230400-
COASTAL MARINE OBSERVATIONS
  
STATION/POSITION TIME  TEMP    WIND        PRES    WAVE
                       AIR SEA DIR/SP/G            HT/PER
                 (UTC) (F)     (DEG/KT/KT) (MB)    (FT/S)
MOUNT DESERT ROC 0300   45     320/  7/  9 1022.0R
MATINICUS ROCK   0200   47     290/ 12/ 14 1021.1R
ISLE OF SHOALS   0200   47     240/ 19/ 19 1021.5R
JEFFREYS LEDGE   0206      54                N/A     2/ 4
$$

.............KEY..............
   WCI - WIND CHILL
   TC  - TEMPERATURE IN CELSIUS
   VSB - VISIBILITY IN MILES
   HX  - HEAT INDEX
   FAIR- INDICATES FEW OR NO CLOUDS BELOW 12,000 FT, WITH NO 
         SIGNIFICANT WEATHER AND/OR OBSTRUCTIONS TO VISIBILITY.